Location: Columbia
(38.9520°N, 92.3340°W)
Time: 22:48:32
(UTC-05:00)

Meteor 1-4 Rocket - Visible Passes

Search period start: 03 September 2015 00:00
Search period end: 13 September 2015 00:00
Orbit: 460 x 520 km, 81.2° (Epoch: 02 September)

Date Brightness Start Highest point End Pass type
(mag) Time Alt. Az. Time Alt. Az. Time Alt. Az.
04 Sep 5.4 05:51:09 10° SE 05:54:10 23° E 05:57:15 10° NE visible
05 Sep 5.8 05:29:02 10° SE 05:31:16 15° E 05:33:38 10° NE visible
06 Sep 6.3 05:08:10 10° E 05:08:23 10° E 05:08:50 10° E visible
07 Sep 2.6 06:16:31 10° SSW 06:20:20 73° W 06:24:08 10° N visible
08 Sep 3.0 05:53:33 10° S 05:57:21 71° E 06:01:08 10° NNE visible
09 Sep 3.9 05:30:45 10° SSE 05:34:23 44° E 05:38:01 10° NNE visible
10 Sep 4.7 05:08:09 10° SSE 05:11:26 29° E 05:14:45 10° NNE visible
11 Sep 5.3 04:45:48 10° SE 04:48:30 19° E 04:51:17 10° NE visible
11 Sep 3.9 06:20:37 10° SW 06:23:44 23° WNW 06:26:46 10° NNW visible
12 Sep 5.7 04:23:56 10° ESE 04:25:34 13° E 04:27:24 10° ENE visible
12 Sep 3.3 05:57:08 10° SW 06:00:38 35° WNW 06:04:05 10° N visible
